Flag for Spain Weather past 2 weeks in Sevilla, Spain

Now
72 °F

Passing clouds.


Feels Like: 76 °F
Forecast: 69 / 88 °F
Wind: 7 mph from Northeast

Location: Sevilla / San Pablo

Current Time: Oct 21, 2014 at 11:40:57 AM

Latest Report: Oct 21, 2014 at 11:00 AM


Visibility: N/A

Pressure: 30.21 "Hg

Humidity: 57%

Dew point: 55 °F

Location of SevillaLocation

Historic Weather in Sevilla — Graph

°F

Sevilla temperature yesterday

Maximum temperature yesterday: 86 °F (at 3:30 PM)
Minimum temperature yesterday: 66 °F (at 5:00 AM)
Average temperature yesterday: 76 °F

Past Weeks' High & Low Weather Summary

 TemperatureHumidityPressure
High88 °F (Oct 19, 5:00 PM)100% (Oct 8, 5:30 AM)30.21 "Hg (Oct 8, 5:30 AM)
Low55 °F (Oct 13, 8:00 AM)27% (Oct 19, 5:00 PM)29.71 "Hg (Oct 11, 9:00 PM)
Average69 °F75%29.96 "Hg
* Reported Oct 6 10:00 AM — Oct 21 10:30 AM, Sevilla, Weather by CustomWeather, © 2014

Note: Actual official high and low records may vary slightly from our data, if they occured in-between our weather recording intervals... More about our weather records

Advertising

Sevilla weather history for previous 24 hours

 ConditionsComfort  
Time TempWeatherWind HumidityBarometerVisibility
10:30 AM
Oct 21
66 °FSunny.5 mph78%30.21 "Hg10 mi
10:00 AM64 °FPassing clouds.5 mph78%30.18 "HgN/A
9:30 AM64 °FClear.6 mph78%30.18 "Hg10 mi
9:00 AM64 °FPassing clouds.7 mph73%30.15 "HgN/A
8:30 AM63 °FClear.1 mph77%30.15 "Hg10 mi
8:00 AM63 °FPassing clouds.3 mph83%30.15 "HgN/A
7:30 AM64 °FClear.1 mph73%30.12 "Hg10 mi
7:00 AM63 °FClear.No wind77%30.12 "Hg10 mi
6:30 AM63 °FClear.1 mph77%30.12 "Hg10 mi
6:00 AM63 °FClear.1 mph77%30.12 "Hg10 mi
5:30 AM63 °FClear.1 mph83%30.12 "Hg10 mi
5:00 AM63 °FClear.1 mph83%30.12 "Hg10 mi
4:30 AM64 °FClear.No wind78%30.12 "Hg10 mi
4:00 AM64 °FClear.No wind78%30.12 "Hg10 mi
3:30 AM64 °FClear.1 mph83%30.12 "Hg10 mi
1:00 AM66 °FClear.No wind83%30.12 "Hg10 mi
12:30 AM68 °FClear.No wind73%30.12 "Hg10 mi
12:00 AM70 °FClear.1 mph69%30.09 "Hg10 mi
11:30 PM
Oct 20
70 °FClear.1 mph73%30.09 "Hg10 mi
11:00 PM72 °FClear.1 mph69%30.09 "Hg10 mi
10:30 PM72 °FClear.No wind69%30.07 "Hg10 mi
10:00 PM72 °FClear.No wind69%30.07 "Hg10 mi
9:30 PM72 °FClear.1 mph73%30.07 "Hg10 mi
9:00 PM73 °FClear.1 mph69%30.07 "Hg10 mi
8:30 PM75 °FSunny.1 mph61%30.07 "Hg10 mi
8:00 PM77 °FSunny.No wind65%30.07 "Hg10 mi
7:30 PM82 °FSunny.No wind45%30.04 "Hg10 mi
7:00 PM86 °FSunny.2 mph33%30.04 "Hg10 mi
6:30 PM86 °FSunny.2 mph33%30.04 "Hg10 mi
6:00 PM86 °FSunny.3 mph35%30.04 "Hg10 mi
5:30 PM86 °FSunny.5 mph33%30.04 "Hg10 mi
5:00 PM86 °FPassing clouds.6 mph31%30.04 "HgN/A
4:30 PM86 °FSunny.7 mph31%30.04 "Hg10 mi
4:00 PM86 °FSunny.7 mph33%30.04 "Hg10 mi
3:30 PM86 °FSunny.8 mph31%30.04 "Hg10 mi
3:00 PM84 °FPassing clouds.8 mph35%30.04 "HgN/A
2:30 PM84 °FSunny.8 mph35%30.07 "Hg10 mi
2:00 PM82 °FSunny.8 mph37%30.07 "Hg10 mi
1:30 PM82 °FPassing clouds.10 mph37%30.07 "HgN/A
1:00 PM81 °FSunny.12 mph39%30.07 "Hg10 mi
12:30 PM79 °FSunny.12 mph39%30.07 "Hg10 mi
12:00 PM77 °FSunny.10 mph42%30.07 "Hg10 mi
11:30 AM75 °FSunny.12 mph41%30.07 "Hg10 mi
11:00 AM73 °FSunny.12 mph44%30.04 "Hg10 mi
Weather by CustomWeather, © 2014

See weather overviewHow to use our weather pages